[[{"header":{"parameterUnit":"m.s-1","parameterCategory":1,"la1":30.2991,"la2":30.254,"lo1":-89.0895,"lo2":-89.0444,"dy":0.0017,"dx":0.0017,"nx":28,"ny":28,"refTime":"2024-10-02T03:00:00:Z","depth":0,"parameterNumber":2,"parameterNumberName":"U-component_of_WINDS"},"data":[0,0,0,0,0,0,0,0,0,0,0,0,0,0,0,0,0,0,0,0,0,0,0,0,0,0,0,0,0,0,0,0,0,0,0,0,0,0,0,0,0,0,0,0,0,0,0,0,0,0,0,0,0,0,0,0,0,0,-1.6302,-1.6303,0,-1.6354,-1.6355,-1.6356,-1.635,-1.6349,-1.6348,-1.6347,-1.6397,-1.6399,-1.6402,0,0,0,0,0,0,0,0,0,0,0,0,0,-1.6194,-1.6196,-1.6302,-1.6303,-1.6304,-1.6354,-1.6355,-1.6356,-1.635,-1.6349,-1.6348,-1.6347,-1.6397,-1.6399,-1.6402,0,0,0,0,0,0,0,0,0,0,0,0,0,-1.6243,-1.6196,-1.6302,-1.6307,-1.6308,-1.6354,-1.6355,-1.6356,-1.635,-1.6349,-1.6347,-1.6346,-1.6396,-1.6399,-1.6402,-1.6446,0,0,-1.6412,-1.6413,0,0,0,0,0,0,0,0,-1.624,-1.6247,-1.6306,-1.6307,-1.6308,-1.6344,-1.6335,-1.6386,-1.635,-1.6334,-1.6347,-1.6346,-1.6381,-1.6385,-1.6397,-1.6449,-1.6451,-1.6412,-1.6414,-1.6415,-1.6416,0,0,0,0,0,0,0,-1.6237,-1.6245,-1.6323,-1.6306,-1.6308,-1.6305,-1.6311,-1.6345,-1.6363,-1.6335,-1.6335,-1.6341,-1.6381,-1.6394,-1.6398,-1.6452,-1.6412,-1.6415,-1.6417,-1.6418,-1.654,-1.6542,0,0,0,0,0,0,-1.6233,-1.6242,-1.6321,-1.6324,-1.627,-1.6308,-1.6314,-1.6334,-1.6363,-1.6366,-1.6342,-1.6341,-1.6389,-1.6395,-1.64,-1.6453,-1.6415,-1.6418,-1.642,-1.6539,-1.6541,-1.6542,0,0,0,0,0,0,-1.623,-1.624,-1.6319,-1.6283,-1.6293,-1.6311,-1.6333,-1.6335,-1.6349,-1.6368,-1.6371,-1.6353,-1.6389,-1.6396,-1.6435,-1.6455,-1.642,-1.6422,-1.6537,-1.6539,-1.6541,-1.656,0,0,0,0,0,0,-1.6227,-1.6239,-1.6257,-1.6284,-1.6295,-1.6354,-1.6334,-1.6337,-1.6355,-1.6353,-1.6379,-1.6382,-1.6388,-1.643,-1.6438,-1.6458,-1.6425,-1.6536,-1.6538,-1.6541,-1.6557,-1.6562,-1.6566,0,0,0,0,0,-1.6223,-1.626,-1.6258,-1.6268,-1.6318,-1.6355,-1.6362,-1.6369,-1.6356,-1.6374,-1.6386,-1.6381,-1.6451,-1.6434,-1.6443,-1.6465,-1.6534,-1.6537,-1.654,-1.6555,-1.6561,-1.6566,0,0,0,0,0,0,-1.6234,-1.6263,-1.6262,-1.6308,-1.6329,-1.6354,-1.6377,-1.6375,-1.64,-1.6397,-1.6404,-1.641,-1.6449,-1.6461,-1.6441,-1.6508,-1.6491,-1.6496,-1.6499,-1.6505,-1.6509,-1.6505,-1.6428,0,0,0,0,0,-1.6242,-1.6271,-1.6295,-1.6333,-1.6344,-1.6358,-1.6375,-1.6379,-1.6401,-1.6409,-1.6425,-1.6445,-1.6472,-1.6489,-1.6514,-1.6559,-1.6564,-1.6578,-1.6582,-1.6586,-1.659,-1.6613,-1.6619,-1.6552,-1.6552,-1.6552,0,0,-1.6258,-1.6278,-1.6296,-1.6336,-1.6353,-1.6381,-1.6366,-1.6397,-1.6418,-1.6414,-1.6452,-1.6463,-1.6487,-1.6528,-1.6548,-1.6539,-1.661,-1.659,-1.6592,-1.6595,-1.6617,-1.6623,-1.6629,-1.6554,-1.6554,-1.6553,0,0,-1.6303,-1.6321,-1.6355,-1.6372,-1.6398,-1.6407,-1.6415,-1.6441,-1.6449,-1.6487,-1.6484,-1.6508,-1.6554,-1.657,-1.6585,-1.6634,-1.663,-1.6642,-1.6665,-1.6687,-1.6693,-1.6697,-1.6714,-1.672,-1.6646,-1.6646,-1.6646,0,-1.6319,-1.6364,-1.6372,-1.6403,-1.642,-1.6418,-1.6452,-1.6468,-1.65,-1.6511,-1.6502,-1.6559,-1.6575,-1.6619,-1.6631,-1.6643,-1.6652,-1.6639,-1.6691,-1.6696,-1.6701,-1.6717,-1.6723,-1.6647,-1.6647,-1.6647,-1.6647,0,-1.6382,-1.6413,-1.6437,-1.6469,-1.6489,-1.6521,-1.6533,-1.6551,-1.6553,-1.6563,-1.6601,-1.6619,-1.6648,-1.6659,-1.6661,-1.6704,-1.6698,-1.669,-1.6673,-1.6708,-1.6723,-1.6729,-1.6649,-1.6649,-1.6648,-1.6648,0,0,-1.6435,-1.6472,-1.648,-1.6494,-1.6523,-1.6546,-1.6577,-1.6606,-1.6621,-1.6644,-1.6669,-1.6708,-1.67,-1.6716,-1.672,-1.674,-1.6776,-1.6729,-1.6729,-1.6736,-1.6823,-1.6829,-1.6836,-1.6774,-1.6775,-1.6776,-1.6821,0,-1.6482,-1.6539,-1.6546,-1.6596,-1.6624,-1.6622,-1.6649,-1.6668,-1.6678,-1.6702,-1.6712,-1.6739,-1.6727,-1.6737,-1.6756,-1.6768,-1.6794,-1.6764,-1.6796,-1.6797,-1.679,-1.6844,-1.685,-1.6892,-1.6827,-1.6828,-1.6829,0,-1.6544,-1.6569,-1.6622,-1.6645,-1.6657,-1.6681,-1.6708,-1.6731,-1.6752,-1.6758,-1.6776,-1.6776,-1.6807,-1.6789,-1.683,-1.6811,-1.6824,-1.6831,-1.6833,-1.6836,-1.6815,-1.6847,-1.6905,-1.6911,-1.6838,-1.6838,-1.6837,0,-1.6576,-1.6623,-1.666,-1.6672,-1.6701,-1.6718,-1.673,-1.6751,-1.6767,-1.679,-1.6801,-1.6826,-1.684,-1.6859,-1.6866,-1.6853,-1.6907,-1.689,-1.6911,-1.6911,-1.6923,-1.6922,-1.6983,-1.6933,-1.6932,-1.6932,-1.6932,0,-1.6627,-1.6659,-1.6675,-1.6698,-1.6733,-1.6741,-1.6775,-1.6786,-1.6804,-1.6828,-1.6828,-1.685,-1.6858,-1.6881,-1.6887,-1.692,-1.6926,-1.6931,-1.6931,-1.693,-1.693,-1.6939,-1.6936,-1.6934,-1.6934,-1.6933,-1.6933,0,-1.6669,-1.6681,-1.6722,-1.6745,-1.6752,-1.6777,-1.6797,-1.6818,-1.6827,-1.6857,-1.6865,-1.6879,-1.6906,-1.6915,-1.6948,-1.6951,-1.6989,-1.6988,-1.6982,-1.6982,-1.7003,-1.7001,-1.7072,-1.7081,-1.7025,-1.7026,-1.7026,0,-1.6701,-1.6726,-1.6752,-1.6769,-1.6782,-1.6808,-1.6825,-1.6833,-1.6851,-1.6876,-1.6894,-1.6921,-1.6943,-1.6986,-1.6999,-1.7023,-1.7022,-1.7045,-1.7026,-1.7023,-1.7021,-1.702,-1.7021,-1.7049,-1.7049,-1.705,-1.705,0,-1.6755,-1.676,-1.6785,-1.6812,-1.6832,-1.6854,-1.6874,-1.6887,-1.6898,-1.6917,-1.6945,-1.6963,-1.6996,-1.7022,-1.7047,-1.7058,-1.7056,-1.7056,-1.7062,-1.7061,-1.7057,-1.7058,-1.6992,-1.7055,-1.7054,-1.7054,-1.7054,-1.7053,-1.6792,-1.6814,-1.6836,-1.6863,-1.688,-1.6899,-1.692,-1.6932,-1.6956,-1.6984,-1.6987,-1.7017,-1.7036,-1.7069,-1.7082,-1.7104,-1.7097,-1.7107,-1.7109,-1.7111,-1.7112,-1.7054,-1.7109,-1.7109,-1.7109,-1.7108,-1.7108,0,-1.6846,-1.686,-1.6885,-1.6914,-1.6935,-1.6932,-1.6954,-1.6972,-1.6999,-1.7017,-1.7039,-1.7071,-1.7096,-1.711,-1.7135,-1.715,-1.7149,-1.7156,-1.7155,-1.7157,-1.7117,-1.7109,-1.7157,-1.7156,-1.7156,-1.7156,-1.7156,-1.7156,-1.6876,-1.6912,-1.6919,-1.6962,-1.6975,-1.7006,-1.7018,-1.7035,-1.705,-1.7086,-1.7107,-1.7117,-1.7133,-1.7159,-1.7181,-1.7185,-1.7193,-1.7201,-1.7203,-1.7165,-1.716,-1.7156,-1.7148,-1.7203,-1.7203,-1.7242,-1.7242,-1.7242]},{"header":{"parameterUnit":"m.s-1","parameterCategory":1,"la1":30.2991,"la2":30.254,"lo1":-89.0895,"lo2":-89.0444,"dy":0.0017,"dx":0.0017,"nx":28,"ny":28,"refTime":"2024-10-02T03:00:00:Z","depth":0,"parameterNumber":3,"parameterNumberName":"V-component_of_WINDS"},"data":[0,0,0,0,0,0,0,0,0,0,0,0,0,0,0,0,0,0,0,0,0,0,0,0,0,0,0,0,0,0,0,0,0,0,0,0,0,0,0,0,0,0,0,0,0,0,0,0,0,0,0,0,0,0,0,0,0,0,-2.0373,-2.0373,0,-2.0347,-2.0347,-2.0347,-2.0311,-2.0311,-2.031,-2.031,-2.0283,-2.0283,-2.0283,0,0,0,0,0,0,0,0,0,0,0,0,0,-2.0392,-2.0392,-2.0374,-2.0373,-2.0373,-2.0347,-2.0347,-2.0347,-2.0312,-2.0311,-2.031,-2.0309,-2.0283,-2.0283,-2.0283,0,0,0,0,0,0,0,0,0,0,0,0,0,-2.0377,-2.0392,-2.0374,-2.0352,-2.035,-2.0348,-2.0347,-2.0347,-2.0312,-2.0311,-2.031,-2.0309,-2.0283,-2.0283,-2.0283,-2.0299,0,0,-2.0282,-2.0282,0,0,0,0,0,0,0,0,-2.0378,-2.0376,-2.0356,-2.0354,-2.0351,-2.0332,-2.0344,-2.0331,-2.0312,-2.0326,-2.031,-2.0309,-2.03,-2.0298,-2.0295,-2.0298,-2.0297,-2.0282,-2.0282,-2.0282,-2.0282,0,0,0,0,0,0,0,-2.0379,-2.0377,-2.0363,-2.0355,-2.0353,-2.0344,-2.0341,-2.0341,-2.0318,-2.0325,-2.0322,-2.032,-2.0299,-2.0296,-2.0295,-2.0296,-2.0282,-2.0282,-2.0282,-2.0282,-2.0309,-2.031,0,0,0,0,0,0,-2.0383,-2.0378,-2.0364,-2.0362,-2.0363,-2.0344,-2.0341,-2.0339,-2.0318,-2.0314,-2.0321,-2.0318,-2.0297,-2.0295,-2.0293,-2.031,-2.0282,-2.0282,-2.0281,-2.0308,-2.0309,-2.031,0,0,0,0,0,0,-2.0384,-2.0382,-2.0365,-2.037,-2.0367,-2.0345,-2.0343,-2.0339,-2.0336,-2.0315,-2.0311,-2.0322,-2.0296,-2.0294,-2.0298,-2.0309,-2.0281,-2.0281,-2.0307,-2.0309,-2.031,-2.0344,0,0,0,0,0,0,-2.0384,-2.0383,-2.0389,-2.037,-2.0367,-2.037,-2.0344,-2.0339,-2.0336,-2.0332,-2.0315,-2.0311,-2.0295,-2.0298,-2.0297,-2.0308,-2.0281,-2.0306,-2.0308,-2.0309,-2.0342,-2.0346,-2.035,0,0,0,0,0,-2.0385,-2.04,-2.0389,-2.0388,-2.0374,-2.0371,-2.0369,-2.035,-2.0337,-2.0342,-2.0329,-2.0312,-2.0308,-2.0299,-2.0298,-2.0308,-2.0305,-2.0307,-2.0309,-2.034,-2.0346,-2.035,0,0,0,0,0,0,-2.0421,-2.0397,-2.0385,-2.0394,-2.0385,-2.0365,-2.0372,-2.0356,-2.035,-2.0348,-2.0324,-2.032,-2.0327,-2.0318,-2.0308,-2.0322,-2.0304,-2.0306,-2.0328,-2.0333,-2.0337,-2.0339,-2.0281,0,0,0,0,0,-2.043,-2.0429,-2.0408,-2.0418,-2.0414,-2.0394,-2.0392,-2.0378,-2.0367,-2.0363,-2.0349,-2.034,-2.0336,-2.0334,-2.0329,-2.0341,-2.0336,-2.0347,-2.0351,-2.0355,-2.0357,-2.036,-2.0365,-2.0317,-2.0317,-2.0317,0,0,-2.0448,-2.0435,-2.0436,-2.0425,-2.0416,-2.0416,-2.0391,-2.0392,-2.0391,-2.0363,-2.0365,-2.0355,-2.0343,-2.035,-2.0352,-2.0343,-2.0369,-2.0358,-2.0361,-2.036,-2.0363,-2.0368,-2.0372,-2.0318,-2.0318,-2.0318,0,0,-2.0481,-2.0472,-2.0478,-2.047,-2.0456,-2.0442,-2.0444,-2.0426,-2.0418,-2.0421,-2.0399,-2.0398,-2.0392,-2.0384,-2.0379,-2.0408,-2.0391,-2.0407,-2.0429,-2.0433,-2.0436,-2.044,-2.0449,-2.0453,-2.0409,-2.0409,-2.0409,0,-2.0506,-2.0504,-2.0484,-2.0486,-2.0481,-2.0456,-2.0462,-2.0454,-2.044,-2.0437,-2.0427,-2.0418,-2.0408,-2.0412,-2.0419,-2.0416,-2.0417,-2.0408,-2.0438,-2.0441,-2.0443,-2.0452,-2.0455,-2.0411,-2.041,-2.041,-2.041,0,-2.0535,-2.0534,-2.0541,-2.0528,-2.0524,-2.0528,-2.0508,-2.0506,-2.0492,-2.048,-2.0481,-2.0468,-2.046,-2.046,-2.0447,-2.0462,-2.0456,-2.0442,-2.0423,-2.045,-2.0458,-2.0461,-2.0413,-2.0413,-2.0412,-2.0412,0,0,-2.059,-2.0564,-2.0567,-2.056,-2.0543,-2.0542,-2.0545,-2.0536,-2.0535,-2.0526,-2.0527,-2.0523,-2.0509,-2.0503,-2.0489,-2.0492,-2.0515,-2.0478,-2.0477,-2.0484,-2.0529,-2.0539,-2.0543,-2.0504,-2.0504,-2.0505,-2.053,0,-2.0619,-2.0622,-2.0603,-2.0611,-2.0609,-2.0585,-2.0587,-2.0576,-2.0564,-2.0561,-2.0547,-2.0544,-2.0527,-2.0523,-2.0526,-2.0511,-2.0523,-2.0509,-2.0504,-2.0504,-2.0507,-2.0547,-2.0558,-2.0582,-2.0533,-2.0533,-2.0533,0,-2.0653,-2.0645,-2.0653,-2.0635,-2.0633,-2.0636,-2.0626,-2.0623,-2.0611,-2.0601,-2.0595,-2.0578,-2.0578,-2.0561,-2.056,-2.0551,-2.0548,-2.0541,-2.0541,-2.0539,-2.052,-2.0546,-2.059,-2.0593,-2.0538,-2.0538,-2.0537,0,-2.0691,-2.0683,-2.0686,-2.0681,-2.066,-2.0662,-2.0653,-2.0639,-2.0635,-2.0627,-2.0624,-2.0616,-2.0611,-2.0605,-2.0586,-2.0575,-2.0587,-2.0568,-2.0579,-2.0579,-2.0582,-2.0582,-2.0625,-2.0581,-2.0581,-2.0581,-2.0581,0,-2.0725,-2.073,-2.0702,-2.0704,-2.0709,-2.0688,-2.0693,-2.0682,-2.067,-2.0668,-2.0647,-2.0646,-2.0621,-2.0618,-2.0603,-2.0604,-2.0603,-2.0595,-2.059,-2.0596,-2.0597,-2.0593,-2.059,-2.0582,-2.0582,-2.0582,-2.0582,0,-2.0768,-2.075,-2.0751,-2.0731,-2.0726,-2.073,-2.0713,-2.0713,-2.07,-2.0698,-2.0697,-2.0675,-2.0669,-2.065,-2.064,-2.063,-2.0635,-2.0628,-2.064,-2.0637,-2.0648,-2.0647,-2.0689,-2.0693,-2.0648,-2.0649,-2.0649,0,-2.0791,-2.0794,-2.0774,-2.0771,-2.0764,-2.076,-2.0756,-2.0734,-2.073,-2.0715,-2.0717,-2.071,-2.0703,-2.0695,-2.0678,-2.067,-2.0661,-2.0677,-2.066,-2.0665,-2.066,-2.066,-2.0659,-2.068,-2.0681,-2.0681,-2.0682,0,-2.0832,-2.0823,-2.0817,-2.0808,-2.0803,-2.0795,-2.0786,-2.0785,-2.0761,-2.0757,-2.0751,-2.0746,-2.0735,-2.0727,-2.0716,-2.0706,-2.069,-2.0687,-2.0689,-2.0694,-2.07,-2.0696,-2.0648,-2.0686,-2.0686,-2.0685,-2.0685,-2.0685,-2.0865,-2.0866,-2.0852,-2.0846,-2.0837,-2.0828,-2.0827,-2.0813,-2.0808,-2.0797,-2.0785,-2.078,-2.0766,-2.0749,-2.074,-2.0736,-2.0727,-2.073,-2.073,-2.0731,-2.0733,-2.0702,-2.0734,-2.0734,-2.0733,-2.0733,-2.0733,0,-2.0904,-2.0894,-2.0889,-2.0876,-2.0871,-2.0856,-2.0845,-2.0841,-2.0837,-2.0826,-2.0819,-2.0811,-2.0804,-2.0786,-2.0777,-2.0776,-2.0768,-2.0774,-2.0774,-2.0771,-2.0742,-2.0741,-2.0781,-2.0781,-2.0781,-2.0781,-2.0781,-2.0781,-2.0924,-2.0925,-2.0914,-2.091,-2.0899,-2.0894,-2.0889,-2.0881,-2.0871,-2.0864,-2.0857,-2.0846,-2.0831,-2.082,-2.0812,-2.0807,-2.0804,-2.0813,-2.0805,-2.0778,-2.0774,-2.0769,-2.0768,-2.0812,-2.0812,-2.0834,-2.0834,-2.0834]}]]